Weather History for KMSP - August, 2013

Change the Weather History Date:

Monday, August 26, 2013

  Actual Average Record
Temperature  
Mean Temperature 89 °F 70 °F  
Max Temperature 97 °F 79 °F 97 °F (2013)
Min Temperature 80 °F 60 °F 44 °F (1964)
Degree Days  
Heating Degree Days 0 1  
Month to date heating degree days 0 5  
Since 1 June heating degree days 50 54  
Since 1 July heating degree days 8 10  
Cooling Degree Days 24 5  
Month to date cooling degree days 222 180  
Year to date cooling degree days 761 656  
Since 1 June cooling degree days 708 614  
Growing Degree Days 38 (Base 50)    
Moisture  
Dew Point 73 °F    
Average Humidity 62    
Maximum Humidity 79    
Minimum Humidity 45    
Precipitation  
Precipitation 0.00 in 0.12 in 2.04 in (2005)
Month to date precipitation 1.98 3.69  
Year to date precipitation 26.35 21.56  
Snow  
Snow 0.00 in 0.00 in 0.00 in ()
Month to date snowfall T 0.0  
Since 1 June snowfall T 0.0  
Since 1 July snowfall T 0.0  
Snow Depth 0.00 in    
Sea Level Pressure  
Sea Level Pressure 29.91 in    
Wind  
Wind Speed 9 mph (SSW)    
Max Wind Speed 16 mph    
Max Gust Speed 23 mph    
Visibility 9 miles    
Events      
T = Trace of Precipitation, MM = Missing Value Source: NWS Daily Summary

Daily Weather History Graph

Daily Weather History Graph

Search for Another Location

Airport or City:

Trip Planner

Search our weather history database for the weather conditions in past years. The results will help you decide how hot, cold, wet, or windy it might be!

Date:

Astronomy

Aug. 26, 2013 Rise Set
Actual Time 6:28 AM CDT 8:00 PM CDT
Civil Twilight 5:57 AM CDT 8:30 PM CDT
Nautical Twilight 5:20 AM CDT 9:07 PM CDT
Astronomical Twilight 4:40 AM CDT 9:47 PM CDT
Moon 10:52 PM CDT (8/26) 12:48 PM CDT (8/26)
Length of Visible Light 14h 33m
Length of Day
13h 31m
Waning Gibbous, 66% of the Moon is Illuminated
Aug 26
Waning Gibbous
Aug 28
Last Quarter
Sep 5
New
Sep 12
First Quarter
Sep 19
Full

Hourly Weather History & Observations

Time (CDT) Temp. Heat Index Dew Point Humidity Pressure Visibility Wind Dir Wind Speed Gust Speed Precip Events Conditions
12:53 AM 84.9 °F 92.1 °F 73.9 °F 69% 29.95 in 9.0 mi SW 9.2 mph 19.6 mph N/A   Clear
1:53 AM 82.9 °F 89.4 °F 73.9 °F 74% 29.96 in 10.0 mi SW 9.2 mph - N/A   Partly Cloudy
2:53 AM 82.0 °F 87.9 °F 73.9 °F 76% 29.95 in 9.0 mi SW 10.4 mph 18.4 mph N/A   Partly Cloudy
3:53 AM 82.0 °F 87.9 °F 73.9 °F 76% 29.94 in 9.0 mi SW 12.7 mph 17.3 mph N/A   Partly Cloudy
4:53 AM 81.0 °F 86.2 °F 73.9 °F 79% 29.94 in 9.0 mi SW 11.5 mph - N/A   Partly Cloudy
5:53 AM 80.1 °F 84.2 °F 73.0 °F 79% 29.96 in 9.0 mi WSW 5.8 mph - N/A   Partly Cloudy
6:53 AM 80.1 °F 84.2 °F 73.0 °F 79% 29.97 in 7.0 mi SW 5.8 mph - N/A   Scattered Clouds
7:53 AM 80.1 °F 84.2 °F 73.0 °F 79% 29.98 in 7.0 mi SSW 4.6 mph - N/A   Scattered Clouds
8:53 AM 82.9 °F 88.0 °F 72.0 °F 69% 29.97 in 8.0 mi SSW 6.9 mph - N/A   Scattered Clouds
9:53 AM 84.9 °F 90.1 °F 71.1 °F 63% 29.96 in 9.0 mi SSW 8.1 mph - N/A   Partly Cloudy
10:53 AM 88.0 °F 93.8 °F 71.1 °F 57% 29.96 in 10.0 mi SW 8.1 mph - N/A   Scattered Clouds
11:53 AM 90.0 °F 96.4 °F 71.1 °F 54% 29.95 in 10.0 mi South 8.1 mph - N/A   Scattered Clouds
12:53 PM 91.9 °F 98.4 °F 71.1 °F 50% 29.94 in 10.0 mi SSW 9.2 mph - N/A   Scattered Clouds
1:53 PM 93.0 °F 100.1 °F 71.1 °F 49% 29.92 in 10.0 mi South 9.2 mph - N/A   Scattered Clouds
2:53 PM 93.9 °F 102.1 °F 72.0 °F 49% 29.89 in 10.0 mi South 12.7 mph - N/A   Scattered Clouds
3:53 PM 96.1 °F 104.9 °F 72.0 °F 46% 29.87 in 10.0 mi South 10.4 mph - N/A   Scattered Clouds
4:53 PM 95.0 °F 104.5 °F 73.0 °F 49% 29.87 in 10.0 mi South 12.7 mph 19.6 mph N/A   Scattered Clouds
5:53 PM 95.0 °F 105.2 °F 73.9 °F 50% 29.85 in 10.0 mi SSW 10.4 mph 19.6 mph N/A   Scattered Clouds
6:53 PM 91.9 °F 101.3 °F 73.9 °F 55% 29.84 in 10.0 mi South 10.4 mph 18.4 mph N/A   Scattered Clouds
7:53 PM 91.0 °F 100.4 °F 73.9 °F 57% 29.84 in 10.0 mi South 9.2 mph - N/A   Scattered Clouds
8:53 PM 89.1 °F 98.0 °F 73.9 °F 61% 29.84 in 10.0 mi South 9.2 mph - N/A   Mostly Cloudy
9:53 PM 88.0 °F 96.5 °F 73.9 °F 63% 29.84 in 10.0 mi South 10.4 mph - N/A   Mostly Cloudy
10:53 PM 87.1 °F 95.4 °F 73.9 °F 65% 29.84 in 10.0 mi SSW 6.9 mph - N/A   Mostly Cloudy
11:53 PM 86.0 °F 93.4 °F 73.4 °F 66% 29.84 in 10.0 mi Calm Calm - N/A   Mostly Cloudy